Regional Weather Roundup
Issued by NWS State College, PA

Home | Current Version | Previous Version | Text Only | Print | Product List | Glossary On
Versions: 1 2 3 4 5 6 7 8 9 10 11 12 13 14 15 16 17 18 19 20 21 22 23 24 25 26 27 28 29 30 31 32 33 34 35 36 37 38 39 40 41 42 43 44 45 46 47 48 49 50
000
ASUS41 KCTP 180710
RWRCTP

REGIONAL WEATHER ROUNDUP
NATIONAL WEATHER SERVICE STATE COLLEGE PA
300 AM EDT WED OCT 18 2017

Note: "fair" indicates few or no clouds below 12,000 feet with no
significant weather and/or obstructions to visibility.

* = STATION THAT DOES NOT REPORT PRECIPITATION /E.G. RAIN...SNOW...ETC/
    THUNDER OR FOG.

PAZ002>004-007>009-013>016-020>023-029>032-180800-
WESTERN PENNSYLVANIA

CITY           SKY/WX    TMP DP  RH WIND       PRES   REMARKS
ERIE           CLEAR     53  39  59 S10       30.25R
MEADVILLE      CLEAR     48  39  71 S7        30.28S
FRANKLIN*      CLEAR     44  38  79 SW7       30.29F
NEW CASTLE     FAIR      45  39  79 CALM      30.31R
BEAVER COUNTY  NOT AVBL
BUTLER*        CLEAR     44  38  79 CALM      30.31S
PITTSBURGH INT CLEAR     48  39  71 CALM      30.30F
PITTSBURGH     CLEAR     47  37  68 S6        30.30S
INDIANA*       CLEAR     41  39  93 CALM      30.34S
LATROBE        CLEAR     39  37  93 CALM      30.33R
WASHINGTON CO* CLEAR     40  38  93 CALM      30.33F
$$

PAZ004>006-010>012-017>019-024>028-033>037-041-042-045-046-049>053-180800-
CENTRAL PENNSYLVANIA

CITY           SKY/WX    TMP DP  RH WIND       PRES   REMARKS
BRADFORD       CLEAR     46  38  73 SW5       30.27S
DUBOIS         CLEAR     44  36  73 SW6       30.28F
CLEARFIELD     CLEAR     40  38  93 CALM      30.31R
JOHNSTOWN      CLEAR     43  36  76 SW7       30.30S
ALTOONA        CLEAR     45  38  76 CALM      30.31S
STATE COLLEGE  PTCLDY    47  38  73 SW6       30.30S
WILLIAMSPORT   CLEAR     42  40  92 CALM      30.29F
SELINSGROVE    CLEAR     40  40 100 CALM      30.31F
FT INDIANTOWN  CLEAR     39  39 100 CALM      30.31S
CAPITAL CITY   CLEAR     43  38  82 SW3       30.31S
HARRISBURG     CLEAR     45  42  89 CALM      30.31S
YORK           CLEAR     37  37 100 CALM      30.31F
$$

PAZ038>040-043-044-047-048-054-055-060>062-067>071-180800-
EASTERN PENNSYLVANIA

CITY           SKY/WX    TMP DP  RH WIND       PRES   REMARKS
SCRANTON       CLEAR     41  37  86 CALM      30.27F
MOUNT POCONO   CLEAR     44  34  67 W9        30.26F
ALLENTOWN      CLEAR     42  37  82 CALM      30.30S
QUAKERTOWN*    SUNNY     37  37 100 CALM      30.31F
READING        CLEAR     42  40  92 CALM      30.30S
LANCASTER      CLEAR     42  40  92 CALM      30.32S
COATESVILLE    SUNNY     43  39  87 W6        30.32F
POTTSTOWN      CLEAR     38  37  97 CALM      30.33S
BLUE BELL      CLEAR     36  36 100 CALM      30.33S
DOYLESTOWN     CLEAR     43  38  82 CALM      30.29F
WILLOW GROVE   NOT AVBL
NORTH PHILA    CLEAR     46  38  73 CALM      30.33S
PHILADELPHIA   CLEAR     49  37  63 W3        30.32F
$$



USA.gov is the U.S. government's official web portal to all federal, state and local government web resources and services.